Location: Cadenet
(43.7345°N, 5.3750°E)
Time: 18:57:50
(UTC+00:00)

Cosmos 2237 Rocket - Pass Details

Date: 18 February 2020
Orbit: 835 x 849 km, 71.0° (Epoch: 06 April)

Event Time Altitude Azimuth Distance (km) Brightness Sun altitude
Exits shadow 03:49:08 24° 356° (N) 1,669 3.8 -30.3°
Drops below altitude 10° 03:51:37 10° 12° (NNE) 2,456 4.9 -29.9°
Sets 03:54:14 0° 20° (NNE) 3,394 5.8 -29.4°
